Home   Weather   Baden   Past weeks

Flag for Austria Past Weather in Baden, Lower Austria, Austria — Yesterday and Last 2 Weeks

Now
19 °F

Light freezing rain. Partly cloudy.


Feels Like: 19 °F
Forecast: 16 / 25 °F
Wind: 2 mph from North

Location: Vienna Schwechat-Flughafen Airport

Current Time: Jan 24, 2017 at 12:27:29 am

Latest Report: Jan 23, 2017 at 11:50 pm


Visibility: 3 mi

Pressure: 30.27 "Hg

Humidity: 93%

Dew Point: 18 °F

Location of BadenLocation

Past Weather in Baden — Graph

°F

Baden Temperature Yesterday

Maximum temperature yesterday: 25 °F (at 12:20 am)
Minimum temperature yesterday: 19 °F (at 7:50 pm)
Average temperature yesterday: 22 °F

High & Low Weather Summary for the Past Weeks

 TemperatureHumidityPressure
High45 °F (Jan 12, 1:50 pm)100% (Jan 12, 3:50 am)30.66 "Hg (Jan 12, 3:50 am)
Low9 °F (Jan 11, 7:20 am)49% (Jan 13, 3:20 pm)29.42 "Hg (Jan 13, 4:50 am)
Average25 °F78%30.21 "Hg
* Reported Jan 8 10:20 pm — Jan 23 10:50 pm, Baden, Weather by CustomWeather, © 2017

Note: Actual official high and low records may vary slightly from our data, if they occured in-between our weather recording intervals... More about our weather records

Advertising

Baden Weather History for the Previous 24 Hours

Scroll right to see more
 ConditionsComfort  
Time TempWeatherWind HumidityBarometerVisibility
10:50 pm
Mon, Jan 23
19 °FLight freezing rain. Partly cloudy.5 mph93%30.27 "Hg2 mi
10:20 pm19 °FLight freezing rain. Partly cloudy.6 mph93%30.27 "Hg2 mi
9:50 pm19 °FLight freezing rain. Partly cloudy.7 mph93%30.27 "Hg2 mi
9:20 pm19 °FLight freezing rain. Partly cloudy.7 mph93%30.27 "Hg2 mi
8:50 pm19 °FLight freezing rain. Partly cloudy.7 mph93%30.27 "Hg2 mi
8:20 pm21 °FLight freezing rain. Partly cloudy.6 mph86%30.27 "Hg2 mi
7:50 pm19 °FLight freezing rain. Partly cloudy.5 mph93%30.27 "Hg2 mi
7:20 pm21 °FLight freezing rain. Partly cloudy.6 mph86%30.27 "Hg3 mi
6:50 pm21 °FLight freezing rain. Partly cloudy.7 mph86%30.27 "Hg3 mi
6:20 pm21 °FLight freezing rain. Passing clouds.5 mph93%30.27 "Hg3 mi
5:50 pm21 °FLight freezing rain. Passing clouds.7 mph86%30.27 "Hg2 mi
5:20 pm21 °FLight freezing rain. Passing clouds.10 mph86%30.27 "Hg2 mi
4:50 pm21 °FLight freezing rain. Passing clouds.12 mph86%30.27 "Hg2 mi
4:20 pm21 °FLight freezing rain. Partly sunny.9 mph86%30.27 "Hg2 mi
3:50 pm21 °FLight freezing rain. Partly sunny.12 mph86%30.27 "Hg2 mi
3:20 pm23 °FLight freezing rain. More clouds than sun.13 mph86%30.27 "Hg2 mi
2:50 pm21 °FLight freezing rain. More clouds than sun.13 mph93%30.27 "Hg2 mi
2:20 pm23 °FLight freezing rain. Broken clouds.13 mph86%30.27 "Hg2 mi
1:50 pm23 °FLight freezing rain. Partly sunny.14 mph86%30.27 "Hg2 mi
1:20 pm23 °FLight freezing rain. Partly sunny.17 mph86%30.30 "Hg2 mi
12:50 pm23 °FLight freezing rain. Partly sunny.16 mph86%30.30 "Hg2 mi
12:20 pm21 °FLight freezing rain. Low clouds.17 mph93%30.33 "Hg2 mi
11:50 am21 °FLight freezing rain. Partly sunny.17 mph93%30.33 "Hg1 mi
11:20 am21 °FLight freezing rain. Partly sunny.15 mph93%30.33 "Hg2 mi
10:50 am21 °FLight freezing rain. Partly sunny.16 mph93%30.33 "Hg1 mi
10:20 am21 °FLight freezing rain. Partly sunny.17 mph93%30.33 "Hg1 mi
9:50 am21 °FLight freezing rain. Partly sunny.18 mph93%30.33 "Hg1 mi
9:20 am21 °FLight freezing rain. Partly sunny.18 mph86%30.33 "Hg1 mi
8:50 am21 °FLight freezing rain. Partly sunny.17 mph93%30.33 "Hg2 mi
8:20 am21 °FLight freezing rain. Partly sunny.17 mph93%30.33 "Hg2 mi
7:50 am23 °FLight freezing rain. Broken clouds.18 mph86%30.33 "Hg2 mi
7:20 am23 °FLight freezing rain. Passing clouds.20 mph86%30.33 "Hg3 mi
6:50 am23 °FPassing clouds.22 mph86%30.33 "Hg4 mi
6:20 am23 °FPassing clouds.18 mph86%30.33 "Hg4 mi
5:50 am23 °FPassing clouds.20 mph86%30.33 "Hg4 mi
5:20 am23 °FPassing clouds.21 mph86%30.33 "Hg4 mi
4:50 am23 °FPassing clouds.17 mph86%30.36 "Hg4 mi
4:20 am23 °FPassing clouds.16 mph86%30.36 "Hg4 mi
3:50 am23 °FPassing clouds.16 mph86%30.36 "Hg4 mi
3:20 am23 °FPassing clouds.13 mph86%30.36 "Hg4 mi
2:50 am23 °FPassing clouds.10 mph80%30.39 "Hg4 mi
2:20 am23 °FPassing clouds.9 mph86%30.39 "Hg4 mi
1:50 am23 °FPassing clouds.10 mph80%30.39 "Hg4 mi
1:20 am25 °FPassing clouds.10 mph74%30.39 "Hg6 mi
12:50 am25 °FPassing clouds.10 mph74%30.39 "HgN/A
12:20 am25 °FClear.12 mph74%30.39 "Hg10 mi
Weather by CustomWeather, © 2017

See weather overviewHow to use our weather pages